FW4741 Weather Reports


time (UTC)temp
C
wind
direction
speed
KPH
gust
KPH
rain 1hr
cm
rain 24hr
cm
rain mn
cm
humidity
%
barometer
mb
20260906172103 22 77 3.2 9.7 0.00 0.00 0.00 68 1022.8
20260906171603 22 77 3.2 9.7 0.00 0.00 0.00 67 1022.8
20260906171104 22 77 3.2 9.7 0.00 0.00 0.00 68 1022.8
20260906170604 22 77 3.2 9.7 0.00 0.00 0.00 68 1022.8
20260906165603 22 77 3.2 9.7 0.00 0.00 0.00 67 1022.9
20260906165103 22 77 3.2 9.7 0.00 0.00 0.00 68 1022.8
20260906164604 22 77 3.2 9.7 0.00 0.00 0.00 68 1022.9
20260906164103 22 77 3.2 9.7 0.00 0.00 0.00 67 1022.9
20260906163604 22 77 3.2 9.7 0.00 0.00 0.00 65 1022.9
20260906163104 22 77 3.2 9.7 0.00 0.00 0.00 67 1022.9
20260906162604 22 77 3.2 9.7 0.00 0.00 0.00 64 1022.9
20260906162103 22 77 3.2 9.7 0.00 0.00 0.00 66 1022.9
20260906161604 22 77 3.2 9.7 0.00 0.00 0.00 67 1022.9
20260906160103 22 77 3.2 9.7 0.00 0.00 0.00 65 1022.9
20260906155604 22 77 3.2 9.7 0.00 0.00 0.00 68 1022.8
20260906155104 22 77 3.2 9.7 0.00 0.00 0.00 67 1022.8
20260906154103 22 77 3.2 9.7 0.00 0.00 0.00 67 1022.9
20260906153604 21 77 3.2 9.7 0.00 0.00 0.00 71 1022.9
20260906153104 21 77 3.2 9.7 0.00 0.00 0.00 74 1022.9
20260906152604 20 77 3.2 9.7 0.00 0.00 0.00 74 1022.9
20260906152104 20 77 3.2 9.7 0.00 0.00 0.00 73 1022.9
20260906151604 20 77 3.2 9.7 0.00 0.00 0.00 73 1022.9
20260906151104 20 77 3.2 9.7 0.00 0.00 0.00 73 1022.9
20260906150604 20 77 3.2 9.7 0.00 0.00 0.00 74 1022.9
20260906145604 20 77 3.2 9.7 0.00 0.00 0.00 76 1022.9
20260906145104 20 77 3.2 9.7 0.00 0.00 0.00 75 1022.8
20260906144604 19 77 3.2 9.7 0.00 0.00 0.00 78 1022.8
20260906144104 19 77 3.2 9.7 0.00 0.00 0.00 78 1022.7
20260906143603 18 77 3.2 9.7 0.00 0.00 0.00 78 1022.7
20260906142103 17 77 3.2 9.7 0.00 0.00 0.00 80 1022.7
20260906141104 17 77 3.2 9.7 0.00 0.00 0.00 82 1022.7
20260906140104 17 77 3.2 9.7 0.00 0.00 0.00 83 1022.7
20260906134604 16 77 3.2 9.7 0.00 0.00 0.00 84 1022.6
20260906134103 16 77 3.2 9.7 0.00 0.00 0.00 84 1022.7
20260906132604 16 77 3.2 9.7 0.00 0.00 0.00 86 1022.5
20260906132103 16 77 3.2 9.7 0.00 0.00 0.00 87 1022.5
20260906131604 15 77 3.2 9.7 0.00 0.00 0.00 87 1022.5
20260906131104 15 77 3.2 9.7 0.00 0.00 0.00 88 1022.4
20260906130604 15 77 3.2 9.7 0.00 0.00 0.00 88 1022.4
20260906130104 15 77 3.2 9.7 0.00 0.00 0.00 89 1022.3
20260906125604 15 77 3.2 9.7 0.00 0.00 0.00 89 1022.3
20260906124603 15 77 3.2 9.7 0.00 0.00 0.00 89 1022.3
20260906124103 15 77 3.2 9.7 0.00 0.00 0.00 89 1022.3
20260906123104 15 77 3.2 9.7 0.00 0.00 0.00 89 1022.3
20260906122604 15 77 3.2 9.7 0.00 0.00 0.00 90 1022.3
20260906122103 15 77 3.2 9.7 0.00 0.00 0.00 90 1022.2
20260906121604 15 77 3.2 9.7 0.00 0.00 0.00 90 1022.3
20260906121103 15 77 3.2 9.7 0.00 0.00 0.00 90 1022.2
20260906120603 15 77 3.2 9.7 0.00 0.00 0.00 90 1022.2
20260906120104 15 77 3.2 9.7 0.00 0.00 0.00 90 1022.2
20260906115104 15 77 3.2 9.7 0.00 0.00 0.00 90 1022.1
20260906114604 16 77 3.2 9.7 0.00 0.00 0.00 90 1022.1
20260906114104 16 77 3.2 9.7 0.00 0.00 0.00 89 1022.1
20260906113603 16 77 3.2 9.7 0.00 0.00 0.00 89 1022.1
20260906113103 16 77 3.2 9.7 0.00 0.00 0.00 89 1022.1
20260906112603 16 77 3.2 9.7 0.00 0.00 0.00 88 1022.1
20260906112103 16 77 3.2 9.7 0.00 0.00 0.00 88 1022.0
20260906111603 16 77 3.2 9.7 0.00 0.00 0.00 88 1022.0
20260906111104 16 77 3.2 9.7 0.00 0.00 0.00 88 1022.0
20260906110603 16 77 3.2 9.7 0.00 0.00 0.00 88 1022.0
20260906110104 16 77 3.2 9.7 0.00 0.00 0.00 88 1022.1
20260906104603 16 77 3.2 9.7 0.00 0.00 0.00 89 1022.2
20260906104104 16 77 3.2 9.7 0.00 0.00 0.00 89 1022.2
20260906103604 16 77 3.2 9.7 0.00 0.00 0.00 89 1022.2
20260906103103 16 77 3.2 9.7 0.00 0.00 0.00 89 1022.2
20260906102604 16 77 3.2 9.7 0.00 0.00 0.00 89 1022.2
20260906102104 16 77 3.2 9.7 0.00 0.00 0.00 89 1022.2
20260906101104 16 77 3.2 9.7 0.00 0.00 0.00 89 1022.2
20260906100604 16 77 3.2 9.7 0.00 0.00 0.00 88 1022.3
20260906100104 16 77 3.2 9.7 0.00 0.00 0.00 88 1022.2
20260906095603 16 77 3.2 9.7 0.00 0.00 0.00 88 1022.3
20260906095103 16 77 3.2 9.7 0.00 0.00 0.00 88 1022.2
20260906094604 16 77 3.2 9.7 0.00 0.00 0.00 88 1022.2
20260906094104 16 77 3.2 9.7 0.00 0.00 0.00 88 1022.3
20260906093603 16 77 3.2 9.7 0.00 0.00 0.00 88 1022.3
20260906093104 16 77 3.2 9.7 0.00 0.00 0.00 88 1022.3
20260906092104 16 77 3.2 9.7 0.00 0.00 0.00 89 1022.3
20260906091603 16 77 3.2 9.7 0.00 0.00 0.00 89 1022.3
20260906091104 16 77 3.2 9.7 0.00 0.00 0.00 89 1022.2
20260906090104 16 77 3.2 9.7 0.00 0.00 0.00 88 1022.3
20260906085104 16 77 3.2 9.7 0.00 0.00 0.00 87 1022.3
20260906084604 16 77 3.2 9.7 0.00 0.00 0.00 86 1022.4
20260906083604 16 77 3.2 9.7 0.00 0.00 0.00 85 1022.4
20260906083103 16 77 3.2 9.7 0.00 0.00 0.00 85 1022.4
20260906082604 16 77 3.2 9.7 0.00 0.00 0.00 85 1022.5
20260906082104 16 77 3.2 9.7 0.00 0.00 0.00 85 1022.5
20260906081603 16 77 3.2 9.7 0.00 0.00 0.00 85 1022.6
20260906081103 17 77 3.2 9.7 0.00 0.00 0.00 85 1022.7
20260906080604 16 77 3.2 9.7 0.00 0.00 0.00 85 1022.7
20260906080104 16 77 3.2 9.7 0.00 0.00 0.00 85 1022.8
20260906075604 16 77 3.2 9.7 0.00 0.00 0.00 85 1022.8
20260906075104 16 77 3.2 9.7 0.00 0.00 0.00 86 1022.8
20260906074104 16 77 3.2 9.7 0.00 0.00 0.00 86 1022.8
20260906073604 16 77 3.2 9.7 0.00 0.00 0.00 86 1022.9
20260906073104 16 77 3.2 9.7 0.00 0.00 0.00 87 1022.9
20260906072604 16 77 3.2 9.7 0.00 0.00 0.00 86 1022.9
20260906072104 16 77 3.2 9.7 0.00 0.00 0.00 86 1022.8
20260906071603 16 77 3.2 9.7 0.00 0.00 0.00 86 1022.8
20260906071104 16 77 3.2 9.7 0.00 0.00 0.00 85 1022.8
20260906070603 17 77 3.2 9.7 0.00 0.00 0.00 85 1022.8
20260906070104 17 77 3.2 9.7 0.00 0.00 0.00 85 1022.8
20260906065604 17 77 3.2 9.7 0.00 0.00 0.00 85 1022.8
20260906065104 16 77 3.2 9.7 0.00 0.00 0.00 85 1022.8
20260906064603 17 77 3.2 9.7 0.00 0.00 0.00 85 1022.8
20260906063604 17 77 3.2 9.7 0.00 0.00 0.00 85 1022.9
20260906063104 17 77 3.2 9.7 0.00 0.00 0.00 85 1023.0
20260906062604 17 77 3.2 9.7 0.00 0.00 0.00 85 1023.0
20260906062104 17 77 3.2 9.7 0.00 0.00 0.00 85 1023.0
20260906060604 17 77 3.2 9.7 0.00 0.00 0.00 84 1023.0
20260906060104 17 77 3.2 9.7 0.00 0.00 0.00 84 1023.1
20260906055104 17 77 3.2 9.7 0.00 0.00 0.00 84 1023.0
20260906054603 17 77 3.2 9.7 0.00 0.00 0.00 84 1023.0
20260906053604 17 77 3.2 9.7 0.00 0.00 0.00 84 1023.1
20260906053104 17 77 3.2 9.7 0.00 0.00 0.00 84 1023.1
20260906052603 17 77 3.2 9.7 0.00 0.00 0.00 84 1023.1
20260906052104 17 77 3.2 9.7 0.00 0.00 0.00 84 1023.0
20260906051604 17 77 3.2 9.7 0.00 0.00 0.00 85 1023.0
20260906051104 17 77 3.2 9.7 0.00 0.00 0.00 85 1023.0
20260906045604 17 77 3.2 9.7 0.00 0.00 0.00 86 1023.1
20260906045104 17 77 3.2 9.7 0.00 0.00 0.00 85 1023.1
20260906044604 17 77 3.2 9.7 0.00 0.00 0.00 85 1023.1
20260906044104 17 77 3.2 9.7 0.00 0.00 0.00 83 1023.1
20260906043604 17 77 3.2 9.7 0.00 0.00 0.00 83 1023.1
20260906042604 17 77 3.2 9.7 0.00 0.00 0.00 84 1023.1
20260906041604 17 77 3.2 9.7 0.00 0.00 0.00 85 1023.1
20260906041103 17 77 3.2 9.7 0.00 0.00 0.00 84 1023.0
20260906040604 17 77 3.2 9.7 0.00 0.00 0.00 83 1023.1
20260906040103 17 77 3.2 9.7 0.00 0.00 0.00 82 1023.0
20260906035103 17 77 3.2 9.7 0.00 0.00 0.00 82 1023.0
20260906034603 17 77 3.2 9.7 0.00 0.00 0.00 81 1023.0
20260906034103 18 77 3.2 9.7 0.00 0.00 0.00 80 1022.9
20260906033604 18 77 3.2 9.7 0.00 0.00 0.00 80 1022.9
20260906033104 18 77 3.2 9.7 0.00 0.00 0.00 78 1022.8
20260906032104 18 77 3.2 9.7 0.00 0.00 0.00 78 1022.6
20260906031104 18 77 3.2 9.7 0.00 0.00 0.00 79 1022.5
20260906030603 17 77 3.2 9.7 0.00 0.00 0.00 79 1022.4
20260906030104 18 77 3.2 9.7 0.00 0.00 0.00 79 1022.3
20260906025104 18 77 3.2 9.7 0.00 0.00 0.00 79 1022.2
20260906024604 17 77 3.2 9.7 0.00 0.00 0.00 79 1022.2
20260906024104 17 77 3.2 9.7 0.00 0.00 0.00 80 1022.1
20260906023103 17 77 3.2 9.7 0.00 0.00 0.00 80 1022.0
20260906022604 17 77 3.2 9.7 0.00 0.00 0.00 81 1021.9
20260906022103 18 77 3.2 9.7 0.00 0.00 0.00 80 1021.9
20260906021603 18 77 3.2 9.7 0.00 0.00 0.00 80 1021.8
20260906020603 17 77 3.2 9.7 0.00 0.00 0.00 82 1021.7
20260906015603 17 77 3.2 9.7 0.00 0.00 0.00 82 1021.7
20260906015104 18 77 3.2 9.7 0.00 0.00 0.00 83 1021.6
20260906014604 18 77 3.2 9.7 0.00 0.00 0.00 83 1021.6
20260906014103 18 77 3.2 9.7 0.00 0.00 0.00 82 1021.6
20260906013103 19 77 3.2 9.7 0.00 0.00 0.00 79 1021.6
20260906012604 20 77 3.2 9.7 0.00 0.00 0.00 77 1021.6
20260906012103 20 77 3.2 9.7 0.00 0.00 0.00 73 1021.7
20260906011604 21 77 3.2 9.7 0.00 0.00 0.00 73 1021.7
20260906011104 21 77 3.2 9.7 0.00 0.00 0.00 71 1021.5
20260906010604 21 77 3.2 9.7 0.00 0.00 0.00 69 1021.5
20260906005604 21 77 3.2 9.7 0.00 0.00 0.00 69 1021.5
20260906005104 21 77 3.2 9.7 0.00 0.00 0.00 70 1021.5
20260906004604 21 77 3.2 9.7 0.00 0.00 0.00 70 1021.5
20260906003604 21 77 3.2 9.7 0.00 0.00 0.00 71 1021.4
20260906003103 21 77 3.2 9.7 0.00 0.00 0.00 68 1021.4
20260906002604 21 77 3.2 9.7 0.00 0.00 0.00 67 1021.5
20260906002104 21 77 3.2 9.7 0.00 0.00 0.00 66 1021.4
20260906001604 21 77 3.2 9.7 0.00 0.00 0.00 64 1021.3
20260906001103 21 77 3.2 9.7 0.00 0.00 0.00 65 1021.2
20260906000604 21 77 3.2 9.7 0.00 0.00 0.00 68 1021.3
20260906000104 21 77 3.2 9.7 0.00 0.00 0.00 71 1021.2
20260905235604 21 77 3.2 9.7 0.00 0.00 0.00 70 1021.2
20260905235103 21 77 3.2 9.7 0.00 0.00 0.00 72 1021.1
20260905234604 22 77 3.2 9.7 0.00 0.00 0.00 71 1021.1
20260905234104 22 77 3.2 9.7 0.00 0.00 0.00 69 1021.1
20260905233604 22 77 3.2 9.7 0.00 0.00 0.00 66 1021.0
20260905233104 22 77 3.2 9.7 0.00 0.00 0.00 65 1021.1
20260905232604 22 77 3.2 9.7 0.00 0.00 0.00 65 1021.0
20260905232103 23 77 3.2 9.7 0.00 0.00 0.00 64 1020.9
20260905231603 23 77 3.2 9.7 0.00 0.00 0.00 66 1020.8
20260905231104 23 77 3.2 9.7 0.00 0.00 0.00 66 1020.8
20260905230604 23 77 3.2 9.7 0.00 0.00 0.00 66 1020.6
20260905225604 23 77 3.2 9.7 0.00 0.00 0.00 65 1020.6
20260905224104 23 77 3.2 9.7 0.00 0.00 0.00 66 1020.6
20260905223604 23 77 3.2 9.7 0.00 0.00 0.00 65 1020.6
20260905223103 23 77 3.2 9.7 0.00 0.00 0.00 65 1020.6
20260905222604 23 77 3.2 9.7 0.00 0.00 0.00 66 1020.5
20260905222104 23 77 3.2 9.7 0.00 0.00 0.00 65 1020.6
20260905221604 23 77 3.2 9.7 0.00 0.00 0.00 65 1020.6
20260905221104 23 77 3.2 9.7 0.00 0.00 0.00 65 1020.5
20260905220603 23 77 3.2 9.7 0.00 0.00 0.00 65 1020.5
20260905220104 23 77 3.2 9.7 0.00 0.00 0.00 64 1020.5
20260905215604 24 77 3.2 9.7 0.00 0.00 0.00 64 1020.4
20260905215104 24 77 3.2 9.7 0.00 0.00 0.00 64 1020.4
20260905214603 24 77 3.2 9.7 0.00 0.00 0.00 62 1020.4
20260905213604 24 77 3.2 9.7 0.00 0.00 0.00 64 1020.5
20260905213104 24 77 3.2 9.7 0.00 0.00 0.00 61 1020.6
20260905212604 23 77 3.2 9.7 0.00 0.00 0.00 63 1020.6
20260905211604 23 77 3.2 9.7 0.00 0.00 0.00 64 1020.7
20260905211104 24 77 3.2 9.7 0.00 0.00 0.00 63 1020.7
20260905210604 24 77 3.2 9.7 0.00 0.00 0.00 63 1020.8
20260905210103 24 77 3.2 9.7 0.00 0.00 0.00 63 1020.8
20260905205604 24 77 3.2 9.7 0.00 0.00 0.00 63 1020.8
20260905205103 24 77 3.2 9.7 0.00 0.00 0.00 64 1020.8
20260905204604 24 77 3.2 9.7 0.00 0.00 0.00 64 1020.9
20260905204104 24 77 3.2 9.7 0.00 0.00 0.00 64 1021.0
20260905203604 24 77 3.2 9.7 0.00 0.00 0.00 64 1020.9
20260905203104 24 77 3.2 9.7 0.00 0.00 0.00 64 1021.1
20260905202604 24 77 3.2 9.7 0.00 0.00 0.00 64 1021.1
20260905201604 24 77 3.2 9.7 0.00 0.00 0.00 64 1021.1
20260905201103 24 77 3.2 9.7 0.00 0.00 0.00 65 1021.2
20260905200604 24 77 3.2 9.7 0.00 0.00 0.00 64 1021.3
20260905200104 24 77 3.2 9.7 0.00 0.00 0.00 65 1021.4
20260905195604 24 77 3.2 9.7 0.00 0.00 0.00 65 1021.5
20260905195104 24 77 3.2 9.7 0.00 0.00 0.00 63 1021.6
20260905194603 24 77 3.2 9.7 0.00 0.00 0.00 65 1021.6
20260905194104 24 77 3.2 9.7 0.00 0.00 0.00 66 1021.5
20260905193604 24 77 3.2 9.7 0.00 0.00 0.00 65 1021.6
20260905193104 25 77 3.2 9.7 0.00 0.00 0.00 62 1021.7
20260905192604 25 77 3.2 9.7 0.00 0.00 0.00 63 1021.7
20260905192104 25 77 3.2 9.7 0.00 0.00 0.00 62 1021.9
20260905191604 25 77 3.2 9.7 0.00 0.00 0.00 63 1021.9
20260905191103 25 77 3.2 9.7 0.00 0.00 0.00 63 1021.9
20260905190604 24 77 3.2 9.7 0.00 0.00 0.00 63 1021.9
20260905190104 24 77 3.2 9.7 0.00 0.00 0.00 64 1022.0
20260905185604 24 77 3.2 9.7 0.00 0.00 0.00 65 1022.0
20260905185104 24 77 3.2 9.7 0.00 0.00 0.00 64 1022.1
20260905184603 24 77 3.2 9.7 0.00 0.00 0.00 65 1022.2
20260905183603 24 77 3.2 9.7 0.00 0.00 0.00 64 1022.3
20260905182603 24 77 3.2 9.7 0.00 0.00 0.00 64 1022.4
20260905182103 23 77 3.2 9.7 0.00 0.00 0.00 65 1022.4
20260905181604 24 77 3.2 9.7 0.00 0.00 0.00 64 1022.5
20260905181103 24 77 3.2 9.7 0.00 0.00 0.00 66 1022.5
20260905180604 24 77 3.2 9.7 0.00 0.00 0.00 64 1022.5
20260905180104 25 77 3.2 9.7 0.00 0.00 0.00 56 1022.7
20260905175603 24 77 3.2 9.7 0.00 0.00 0.00 54 1022.7
20260905175104 24 77 3.2 9.7 0.00 0.00 0.00 56 1022.7
20260905174604 24 77 3.2 9.7 0.00 0.00 0.00 55 1022.7
20260905174104 24 77 3.2 9.7 0.00 0.00 0.00 56 1022.8
20260905173604 23 77 3.2 9.7 0.00 0.00 0.00 57 1022.8
20260905173104 23 77 3.2 9.7 0.00 0.00 0.00 58 1022.8
20260905172604 23 77 3.2 9.7 0.00 0.00 0.00 59 1022.9